Location: Plymouth
(43.7570°N, 71.6890°W)
Time: 16:16:04
(UTC-04:00)

Daily predictions for brighter satellites

Satellite Brightness Start Highest point End
(mag) Time Altitude Azimuth Time Altitude Azimuth Time Altitude Azimuth
Cosmos 1603 4.3 18:48:36 10° S 18:53:49 37° ESE 18:59:03 10° NE
Meteor 1-22 Rocket 4.1 18:50:11 10° S 18:55:29 81° E 19:00:48 10° NNE
NOSS 3-2 (C) 3.5 18:51:05 10° SSW 18:57:09 76° ESE 19:03:48 10° NE
Meteor 1-24 Rocket 3.9 18:52:31 10° NNW 18:58:09 79° W 19:03:33 10° S
Cosmos 1953 2.9 18:56:41 10° SSE 19:00:20 35° E 19:03:59 10° NNE
COSMO-SKYMED 1 2.6 18:56:59 10° NNE 19:01:22 86° E 19:05:42 10° SSW
ISS -2.1 18:59:31 10° SSW 19:02:15 25° SE 19:05:00 10° E
In-Cosmos 22 4.3 18:56:46 10° N 19:02:31 61° ENE 19:08:10 10° SSE
ATLAS CENTAUR R/B 4.4 19:07:20 10° WNW 19:09:29 14° WSW 19:11:33 10° SW
Cosmos 1072 Rocket 4.4 19:04:39 10° S 19:10:44 81° E 19:16:53 10° N
Cosmos 1674 3.9 19:09:01 10° NNE 19:12:13 24° ENE 19:15:24 10° SE
Cosmos 2333 Rocket 4.4 19:07:32 10° WSW 19:12:23 27° NW 19:17:16 10° N
Cosmos 1470 4.1 19:09:52 10° SE 19:12:39 19° E 19:15:28 10° NE
Cosmos 1076 Rocket 3.5 19:08:57 10° N 19:13:18 88° ENE 19:17:39 10° S
Spot 2 Rocket 3.8 19:09:55 10° SE 19:14:43 46° ENE 19:19:32 10° N
Cosmos 1048 Rocket 4.5 19:13:20 10° SSE 19:18:10 37° ESE 19:22:58 10° NE
Cosmos 1766 Rocket 3.5 19:14:07 10° N 19:18:31 82° E 19:22:50 10° S
ATLAS 5 CENTAUR R/B 2.0 19:14:30 10° SW 19:19:19 81° NW 19:24:34 10° NE
Abrixas 2.6 19:19:12 10° SW 19:22:08 54° SSE 19:24:15 17° ENE
Cosmos 1269 Rocket 4.2 19:18:26 10° S 19:23:30 49° ESE 19:28:34 10° NNE
Cosmos 2151 4.4 19:20:37 10° NNE 19:23:34 18° ENE 19:24:58 16° E
Cosmos-2242 3.0 19:20:02 10° S 19:24:20 62° E 19:28:41 10° NNE
Cosmos 2237 Rocket 4.5 19:23:24 10° WSW 19:27:59 24° NW 19:32:35 10° N
SJ-6B 3.1 19:24:37 10° S 19:28:38 76° WSW 19:32:45 10° NNW
USA 215 3.8 19:23:30 10° ENE 19:29:31 38° SE 19:35:30 10° SSW
HJ-1C 3.4 19:28:11 10° SSE 19:31:30 60° ENE 19:34:51 10° N
ATLAS CENTAUR R/B 3.8 19:27:13 10° SW 19:32:28 89° NW 19:50:08 10° NE
FengYun 1-2 T 4.3 19:27:33 10° SE 19:32:53 55° ENE 19:38:14 10° N
Cosmos 1346 2.9 19:30:21 10° N 19:33:21 73° E 19:36:18 10° SSE
FREGAT/IRIS 2.8 19:30:27 10° S 19:33:32 77° W 19:36:38 10° NNW
Cosmos 1544 3.1 19:31:06 10° S 19:34:46 61° E 19:38:30 10° NNE
TELKOM 3 3.1 19:34:39 10° WNW 19:37:32 77° SSW 19:38:26 32° SE
METEOR-M 4.1 19:33:02 10° SSE 19:38:23 85° ENE 19:43:46 10° NNW
Cosmos 724 4.4 19:32:58 10° SW 19:38:56 85° WNW 19:45:05 10° NNE
Cosmos 1758 3.8 19:40:50 10° SSW 19:44:53 66° W 19:49:00 10° N
Cosmos 2034 Rocket 4.2 19:39:43 10° S 19:46:01 80° W 19:52:24 10° N
SL-16 R/B 3.9 19:45:02 10° WSW 19:50:10 34° NW 19:55:20 10° N
CZ-4B DEB 3.1 19:49:16 33° ESE 19:50:17 45° ENE 19:53:26 10° N
Cosmos 1500 Rocket 3.5 19:46:10 10° N 19:50:36 64° E 19:55:02 10° SSE
Cosmos 1842 Rocket 3.5 19:48:38 10° S 19:52:53 60° E 19:57:12 10° NNE
ERS-1 Rocket 4.2 19:55:49 22° ENE 19:56:07 22° ENE 19:59:55 10° NNE
FENGYUN 3A 3.6 19:51:35 10° SSE 19:56:54 65° ENE 20:02:15 10° N
Helios 1A 3.2 19:56:39 10° S 20:00:51 71° WSW 20:05:05 10° NNW
Cosmos 1328 3.9 20:02:30 10° N 20:06:23 49° ENE 20:06:52 46° ESE
CZ-2D R/B 3.2 20:06:27 37° SE 20:07:51 66° ENE 20:11:44 10° N
Cosmos 1110 Rocket 4.2 20:03:06 10° N 20:08:16 49° ENE 20:10:02 36° ESE
Meteor 1-29 3.1 20:05:07 10° N 20:08:38 73° WNW 20:12:06 10° SSW
SL-14 R/B 4.3 20:06:27 10° N 20:09:17 30° NE 20:09:17 30° NE
Cosmos 1627 Rocket 4.5 20:09:19 10° N 20:15:29 62° E 20:19:36 22° SSE
GPS 2-04 Rocket1 4.1 20:12:48 10° SW 20:15:05 21° S 20:15:05 21° S
ASTEX 1 3.3 20:12:03 10° N 20:16:59 89° E 20:21:53 10° S
H-2A R/B 2.6 20:17:06 44° SSE 20:18:17 86° ENE 20:22:09 10° NNW
Cosmos 839 Rocket 4.2 20:11:58 10° NNW 20:19:45 87° NE 20:23:23 29° SE
Cosmos 1943 Rocket 2.5 20:14:46 10° NNW 20:20:11 46° ENE 20:21:11 41° E
Resurs 1-3 4.5 20:17:18 10° S 20:21:33 49° W 20:25:50 10° NNW
ALOS 2.5 20:20:14 13° S 20:24:27 68° WSW 20:29:07 10° NNW
Cosmos 2251 Rocket 3.5 20:22:24 10° S 20:27:28 55° ESE 20:32:35 10° NNE
Cosmos 2369 Rocket 2.3 20:22:06 10° NNW 20:27:46 73° WSW 20:31:02 26° SSE
Helios 1B rocket 3.8 20:24:46 10° N 20:28:38 39° WNW 20:32:28 10° SW
Resurs 01 Rocket 3.4 20:25:48 10° SSW 20:29:46 32° W 20:33:47 10° NNW
Cosmos 1943 3.1 20:24:41 10° SSW 20:30:19 85° WNW 20:35:59 10° NNE
CENTAUR R/B 2.5 20:26:51 10° SW 20:32:58 87° NW 20:39:55 10° NE
SL-8 R/B 3.8 20:28:32 10° WSW 20:33:18 72° NNW 20:34:18 54° NE
Gbstr 26 Del rocket 3.2 20:30:40 10° SW 20:35:14 88° SSE 20:36:27 54° ENE
ISS -1.9 20:35:26 10° WSW 20:37:49 38° WNW 20:37:49 38° WNW
Cosmos 1331 Rocket 3.9 20:34:13 10° NNW 20:39:33 80° ENE 20:40:19 65° SE
Cosmos 2263 4.2 20:33:46 10° NNW 20:39:35 81° WSW 20:41:31 44° SSE
BREEZE-M DEB (TANK) 3.0 20:29:36 10° WNW 20:40:50 83° N 20:41:39 63° E
Cosmos 1733 4.4 20:37:37 10° SSW 20:41:19 43° WNW 20:45:02 10° N
ERBS 4.0 20:42:28 10° NW 20:44:32 32° NNW 20:44:32 32° NNW
Cosmos 2279 Rocket 3.8 20:48:02 42° S 20:50:14 74° E 20:56:27 10° NNE
GP-B 3.7 20:47:12 10° N 20:51:35 56° W 20:52:56 39° SW
Cosmos 2058 3.6 20:48:39 10° NNW 20:51:47 49° NNW 20:51:47 49° NNW
Cosmos 1302 Rocket 4.2 20:48:01 10° NNW 20:52:26 55° NNE 20:52:26 55° NNE
H-2A R/B 4.2 21:03:10 19° NNE 21:03:10 19° NNE 21:04:34 10° N
Cosmos 2151 4.2 20:57:06 10° NNW 21:01:03 39° W 21:01:36 37° WSW
Cosmos 1805 Rocket 4.5 20:58:02 10° N 21:01:08 44° NNW 21:01:08 44° NNW
Envisat 3.5 21:05:36 53° N 21:05:36 53° N 21:09:30 10° N
ATLAS 5 CENTAUR R/B 4.4 21:01:22 10° WNW 21:04:55 19° NNW 21:08:42 10° NNE
Cosmos 2221 4.3 21:09:42 26° N 21:09:42 26° N 21:11:45 10° N
Cosmos 1655 Rocket 4.2 21:01:53 10° NNW 21:08:02 67° W 21:10:10 42° SSW
Cosmos 2026 Rocket 4.4 21:02:39 10° NNW 21:08:38 59° W 21:11:21 33° SSW
Meteor 2-1 Rocket 4.3 21:08:30 53° SSW 21:09:55 77° W 21:15:51 10° N
Cosmos 1428 Rocket 4.4 21:04:26 10° N 21:10:46 86° W 21:11:17 76° S
USA 215 3.4 21:09:20 30° NE 21:12:47 69° NW 21:19:15 10° WSW
Cosmos 1656 Rocket 4.5 21:17:03 10° NNW 21:20:44 42° N 21:20:44 42° N
H-2A R/B 4.4 21:30:01 12° NNE 21:30:01 12° NNE 21:30:35 10° NNE
ERS-1 Rocket 4.1 21:35:50 40° WNW 21:35:50 40° WNW 21:39:27 10° NNW
Cosmos 1943 Rocket 4.0 21:59:01 10° NW 22:02:43 26° W 22:02:43 26° W
CENTAUR R/B 4.5 22:19:24 10° W 22:24:42 26° NNW 22:30:34 10° NNE
